Simultaneous Nadir Overpasses (SNOs) Predictions

Prediction of SNOs between NOAA-20 and METOP-C Satellite Orbit:

Table of predicted SNOs for the next 14.0 days since TLE Epoch: 5/8/2021
Index Date (NOAA-20) Time (NOAA-20) Lat,Lon (NOAA-20) SZA (NOAA-20 ) Date (METOP-C) Time (METOP-C) Lat,Lon (METOP-C) SZA (METOP-C ) Distance(km) Time Diff (sec)
1 05/09/2021 04:26:48 -73.36, -76.18 123.93 05/09/2021 04:27:55 -73.34, -73.51 124.08 85.13 67
2 05/09/2021 05:17:30 73.15, 91.59 55.84 05/09/2021 05:18:39 73.14, 93.40 55.74 58.46 69
3 05/09/2021 06:08:12 -73.06,-100.90 124.28 05/09/2021 06:09:23 -73.01, -99.55 124.40 44.08 71
4 05/09/2021 06:58:54 72.85, 66.85 55.49 05/09/2021 07:00:07 72.82, 67.37 55.42 17.40 73
5 05/09/2021 07:49:36 -72.76,-125.64 124.62 05/09/2021 07:50:50 -72.74,-125.46 124.66 6.40 74
6 05/09/2021 08:40:21 72.71, 41.79 55.31 05/09/2021 08:41:31 72.69, 41.77 55.29 1.58 70
7 05/09/2021 09:31:05 -72.72,-150.92 124.69 05/09/2021 09:32:12 -72.72,-150.85 124.70 2.33 67
8 05/09/2021 10:21:51 72.71, 16.40 55.30 05/09/2021 10:22:52 72.72, 16.49 55.30 3.19 61
9 05/09/2021 11:12:34 -72.67,-176.20 124.76 05/09/2021 11:13:34 -72.70,-176.23 124.74 3.22 60
10 05/09/2021 12:03:21 72.71, -8.98 55.28 05/09/2021 12:04:14 72.70, -8.89 55.26 3.23 53
11 05/09/2021 12:54:04 -72.67, 158.42 124.77 05/09/2021 12:54:56 -72.68, 158.38 124.78 1.22 52
12 05/09/2021 13:44:50 72.67, -34.26 55.21 05/09/2021 13:45:36 72.68, -34.28 55.22 1.46 46
13 05/09/2021 14:35:34 -72.68, 133.04 124.79 05/09/2021 14:36:18 -72.65, 133.00 124.82 2.86 44
14 05/09/2021 15:26:20 72.67, -59.64 55.20 05/09/2021 15:26:58 72.66, -59.66 55.18 1.70 38
15 05/09/2021 16:17:04 -72.68, 107.66 124.80 05/09/2021 16:17:39 -72.68, 107.72 124.81 2.18 35
16 05/09/2021 17:07:50 72.67, -85.02 55.19 05/09/2021 17:08:19 72.69, -84.94 55.19 2.97 29
17 05/09/2021 17:58:34 -72.69, 82.27 124.82 05/09/2021 17:59:01 -72.66, 82.34 124.85 3.29 27
18 05/09/2021 18:49:20 72.68,-110.40 55.17 05/09/2021 18:49:41 72.66,-110.33 55.15 3.06 21
19 05/09/2021 19:40:03 -72.64, 57.00 124.89 05/09/2021 19:40:23 -72.64, 56.95 124.88 1.39 20
20 05/09/2021 20:30:49 72.63,-135.68 55.10 05/09/2021 20:31:03 72.64,-135.71 55.11 1.53 14
21 05/09/2021 21:21:33 -72.64, 31.61 124.90 05/09/2021 21:21:45 -72.62, 31.57 124.92 2.84 12
22 05/09/2021 22:12:19 72.64,-161.07 55.09 05/09/2021 22:12:25 72.62,-161.09 55.07 1.84 6
23 05/09/2021 23:03:03 -72.65, 6.23 124.91 05/09/2021 23:03:06 -72.65, 6.29 124.91 2.04 3
24 05/09/2021 23:53:49 72.64, 173.55 55.07 05/09/2021 23:53:46 72.65, 173.63 55.08 2.76 3
25 05/10/2021 00:44:33 -72.65, -19.15 124.93 05/10/2021 00:44:28 -72.63, -19.09 124.95 3.12 5
26 05/10/2021 01:35:19 72.64, 148.17 55.06 05/10/2021 01:35:08 72.63, 148.24 55.04 2.91 11
27 05/10/2021 02:26:02 -72.60, -44.43 125.00 05/10/2021 02:25:50 -72.61, -44.48 124.99 1.55 12
28 05/10/2021 03:16:48 72.60, 122.89 54.99 05/10/2021 03:16:30 72.61, 122.86 55.01 1.61 18
29 05/10/2021 04:07:32 -72.61, -69.81 125.01 05/10/2021 04:07:12 -72.59, -69.86 125.03 2.82 20
30 05/10/2021 04:58:18 72.60, 97.51 54.98 05/10/2021 04:57:52 72.59, 97.47 54.97 1.99 26
31 05/10/2021 05:49:02 -72.61, -95.20 125.03 05/10/2021 05:48:33 -72.61, -95.14 125.02 1.93 29
32 05/10/2021 06:39:48 72.60, 72.13 54.96 05/10/2021 06:39:13 72.61, 72.19 54.98 2.57 35
33 05/10/2021 07:30:32 -72.61,-120.58 125.04 05/10/2021 07:29:55 -72.59,-120.52 125.06 2.97 37
34 05/10/2021 08:21:18 72.61, 46.74 54.95 05/10/2021 08:20:35 72.59, 46.81 54.94 2.79 43
35 05/10/2021 09:12:01 -72.57,-145.86 125.11 05/10/2021 09:11:17 -72.57,-145.91 125.09 1.69 44
36 05/10/2021 10:02:47 72.56, 21.46 54.88 05/10/2021 10:01:57 72.57, 21.43 54.90 1.69 50
37 05/10/2021 10:53:31 -72.57,-171.24 125.12 05/10/2021 10:52:39 -72.55,-171.29 125.13 2.81 52
38 05/10/2021 11:44:17 72.56, -3.92 54.86 05/10/2021 11:43:19 72.55, -3.96 54.86 2.14 58
39 05/10/2021 12:35:01 -72.57, 163.38 125.14 05/10/2021 12:34:00 -72.58, 163.43 125.12 1.85 61
40 05/10/2021 13:25:47 72.57, -29.30 54.85 05/10/2021 13:24:40 72.58, -29.24 54.87 2.39 67
41 05/10/2021 14:16:31 -72.58, 138.00 125.15 05/10/2021 14:15:22 -72.56, 138.05 125.16 2.83 69
42 05/10/2021 15:07:17 72.57, -54.68 54.84 05/10/2021 15:06:02 72.56, -54.62 54.83 2.70 75
43 05/10/2021 15:57:59 -72.48, 112.82 125.28 05/10/2021 15:56:45 -72.49, 112.56 125.25 8.57 74
44 05/10/2021 16:48:41 72.27, -79.46 54.49 05/10/2021 16:47:29 72.28, -80.51 54.56 35.75 72
45 05/10/2021 17:39:23 -72.18, 88.04 125.62 05/10/2021 17:38:12 -72.21, 86.68 125.51 46.29 71
46 05/10/2021 18:30:05 71.97,-104.25 54.15 05/10/2021 18:28:57 71.95,-106.48 54.25 77.02 68
47 05/10/2021 19:20:47 -71.88, 63.24 125.96 05/10/2021 19:19:40 -71.88, 60.72 125.83 87.22 67



Historial Predications of SNOs between NOAA-20 and METOP-C
